TimeCDT,TemperatureF,Dew PointF,Humidity,Sea Level PressureIn,VisibilityMPH,Wind Direction,Wind SpeedMPH,Gust SpeedMPH,PrecipitationIn,Events,Conditions,WindDirDegrees,DateUTC
12:53 AM,66.0,64.0,93,30.08,8.0,East,8.1,-,N/A,,Overcast,90,2013-08-16 05:53:00
1:53 AM,64.9,63.0,93,30.08,8.0,East,5.8,-,N/A,,Overcast,90,2013-08-16 06:53:00
2:53 AM,64.9,63.0,93,30.08,7.0,East,3.5,-,N/A,,Overcast,90,2013-08-16 07:53:00
3:53 AM,64.9,63.0,93,30.08,7.0,East,3.5,-,N/A,,Overcast,90,2013-08-16 08:53:00
4:53 AM,64.0,62.1,93,30.07,9.0,East,5.8,-,N/A,,Overcast,90,2013-08-16 09:53:00
5:53 AM,64.0,61.0,90,30.08,8.0,East,5.8,-,N/A,,Overcast,100,2013-08-16 10:53:00
6:01 AM,64.4,60.8,88,30.11,9.0,ESE,5.8,-,N/A,,Overcast,110,2013-08-16 11:01:00
6:35 AM,62.6,60.8,94,30.13,7.0,ESE,5.8,-,N/A,,Overcast,110,2013-08-16 11:35:00
6:53 AM,63.0,61.0,93,30.10,7.0,East,4.6,-,N/A,,Overcast,90,2013-08-16 11:53:00
7:53 AM,63.0,61.0,93,30.12,4.0,East,8.1,-,N/A,,Overcast,80,2013-08-16 12:53:00
8:53 AM,63.0,60.1,90,30.14,5.0,East,5.8,-,N/A,,Overcast,90,2013-08-16 13:53:00
9:53 AM,64.0,60.1,87,30.14,6.0,East,6.9,-,N/A,,Overcast,80,2013-08-16 14:53:00
10:53 AM,66.0,61.0,84,30.13,10.0,ESE,5.8,-,N/A,,Overcast,110,2013-08-16 15:53:00
11:12 AM,66.2,60.8,83,30.16,10.0,East,6.9,-,N/A,,Overcast,100,2013-08-16 16:12:00
11:53 AM,66.9,61.0,81,30.14,10.0,East,4.6,-,N/A,,Overcast,80,2013-08-16 16:53:00
12:53 PM,68.0,61.0,78,30.14,10.0,ESE,5.8,-,N/A,,Overcast,120,2013-08-16 17:53:00
1:53 PM,69.1,62.1,78,30.13,10.0,SE,6.9,-,N/A,,Overcast,130,2013-08-16 18:53:00
2:53 PM,69.1,62.1,78,30.13,10.0,ESE,5.8,-,N/A,,Overcast,120,2013-08-16 19:53:00
3:53 PM,69.1,63.0,81,30.13,10.0,SE,5.8,-,N/A,,Overcast,130,2013-08-16 20:53:00
4:53 PM,70.0,63.0,78,30.12,10.0,South,3.5,-,N/A,,Overcast,170,2013-08-16 21:53:00
5:53 PM,70.0,63.0,78,30.12,10.0,ESE,5.8,-,N/A,,Overcast,120,2013-08-16 22:53:00
6:53 PM,69.1,63.0,81,30.12,10.0,SE,6.9,-,N/A,,Overcast,140,2013-08-16 23:53:00
7:53 PM,69.1,64.0,84,30.13,10.0,ESE,5.8,-,N/A,,Mostly Cloudy,120,2013-08-17 00:53:00
8:53 PM,68.0,64.0,87,30.13,10.0,ESE,5.8,-,N/A,,Overcast,110,2013-08-17 01:53:00
9:53 PM,68.0,64.0,87,30.14,10.0,SE,6.9,-,N/A,,Overcast,130,2013-08-17 02:53:00
10:53 PM,66.0,62.1,87,30.14,10.0,SE,6.9,-,N/A,,Partly Cloudy,130,2013-08-17 03:53:00
11:53 PM,64.9,62.1,90,30.15,10.0,SE,6.9,-,N/A,,Mostly Cloudy,130,2013-08-17 04:53:00